[Date Prev][Date Next][Thread Prev][Thread Next] - [Date Index][Thread Index][Author Index]

2 Line ISS Keps 2-2



ISS
1 25544U 98067A   02033.21005249  .00075443  00000-0  92703-3 0   281
2 25544  51.6391  11.5048 0006673  23.1833  71.1870 15.59575698182979


----
Via the sarex mailing list at AMSAT.ORG courtesy of AMSAT-NA.
To unsubscribe, send "unsubscribe sarex" to Majordomo@amsat.org



AMSAT Top AMSAT Home